Regional Weather Roundup
Issued by NWS

Home | Current Version | Previous Version | Graphics & Text | Print | Product List | Glossary On
Versions: 1 2 3 4 5 6 7 8 9 10 11 12 13 14 15 16 17 18 19 20 21 22 23 24 25 26 27 28 29 30 31 32 33 34 35 36 37 38 39 40 41 42 43 44 45 46 47 48 49 50
000
ASUS45 KBOU 211707
RWRCO

WEATHER ROUNDUP FOR COLORADO
NATIONAL WEATHER SERVICE DENVER/BOULDER CO
1100 AM MDT SUN MAY 21 2017

NOTE: "FAIR" INDICATES FEW OR NO CLOUDS BELOW 12000 FEET WITH NO
SIGNIFICANT WEATHER AND/OR OBSTRUCTIONS TO VISIBILITY.

COZ001>005-013-030-031-211800-
...NORTHWEST COLORADO...

CITY           SKY/WX    TMP DP  RH WIND       PRES   REMARKS
CRAIG          FAIR      59  33  37 CALM      30.22S
HAYDEN         FAIR      54  28  37 CALM      30.23S
MEEKER         PTSUNNY   60  30  32 SE3       30.21F
RABBIT EARS PA CLOUDY    36  30  80 W5        30.35S
STEAMBOAT SPGS FAIR      52  31  44 W6        30.24S
WALDEN           N/A     50  27  40 W7        30.27F
$$

COZ006>008-011-211800-
...WEST CENTRAL VALLEYS...

CITY           SKY/WX    TMP DP  RH WIND       PRES   REMARKS
GRAND JUNCTION PTSUNNY   63  32  31 S5        30.18F
MONTROSE       FAIR      59  31  34 VRB3      30.23S
EAGLE          MOSUNNY   55  32  41 CALM      30.27F
RIFLE          PTSUNNY   60  29  30 CALM      30.21F
DELTA          FAIR      63  26  25 CALM      30.21F
NUCLA          FAIR      59  27  29 CALM      30.25F
$$

COZ017>023-064>068-211800-
...SOUTHWEST COLORADO...

CITY           SKY/WX    TMP DP  RH WIND       PRES   REMARKS
DURANGO        FAIR      59  29  31 VRB3      30.24S
CORTEZ         FAIR      63  26  24 VRB3      30.21F
PAGOSA SPRINGS FAIR      56  22  26 SW5       30.27F
TELLURIDE      FAIR      52  20  28 CALM      30.33S
WOLF CREEK PAS FAIR      36  18  48 SW7       30.46S
$$

COZ009-010-012-014-032>034-037-058>063-211800-
...CENTRAL COLORADO...

CITY           SKY/WX    TMP DP  RH WIND       PRES   REMARKS
ASPEN          FAIR      54  24  31 VRB5      30.26S
BUENA VISTA    FAIR      53  17  24 CALM      30.26F
COPPER MTN     CLOUDY    36  23  60 NW9       30.41R
BERTHOUD PASS  CLOUDY    27  14  59 NW15      30.40R WCI  15
COTTONWOOD PAS FAIR      50  18  27 E7        30.33S
GUNNISON       FAIR      50  24  36 VRB3      30.29F
KREMMLING      FAIR      52  34  50 CALM      30.29F
LEADVILLE      PTSUNNY   40  18  41 VRB3      30.32S
MONARCH PASS   FAIR      34  18  51 W7        30.51R WCI  28
SALIDA         FAIR      58  20  23 CALM      30.33F
SUNLIGHT       FAIR      37  21  52 W3        30.41S
WILKERSON PASS FAIR      37  21  52 SW6       30.40S
$$

COZ069>075-211800-
...SAN LUIS VALLEY/SANGRE DE CRISTO MOUNTAINS...

CITY           SKY/WX    TMP DP  RH WIND       PRES   REMARKS
ALAMOSA        FAIR      55  23  28 S8        30.26F
DEL NORTE      FAIR      53  25  34 SE9       30.28S
LA VETA PASS   FAIR      46  21  36 SW16      30.45S
SAGUACHE       FAIR      55  21  26 S5        30.27F
$$

COZ035-036-038>040-211800-
...NORTHERN COLORADO FRONT RANGE...

CITY           SKY/WX    TMP DP  RH WIND       PRES   REMARKS
DENVER INTL AP FAIR      62  31  31 CALM      30.21S
DMNS CITY PARK   N/A     61  29  28 NE6G18    30.19F
AURORA         MOSUNNY   59  31  35 E3        30.21F
FRONT RANGE AP MOSUNNY   59  32  36 N10       30.22S
ERIE MUNI ARPT FAIR      61  33  34 NE7       30.20S
BOULDER MUN AP FAIR      59  34  38 NE3       30.20S
CENTENNIAL     FAIR      59  31  34 NE5       30.21S
BROOMFIELD     MOSUNNY   59  32  36 E5        30.22S
FORT COLLINS   FAIR      61  40  45 SE7       30.21S
LONGMONT       FAIR      64  39  38 NE5       30.21S HAZE
$$

COZ041-046-047-076>085-087-088-211800-
...PIKES PEAK/PALMER DIVIDE AND SOUTHERN FOOTHILLS...

CITY           SKY/WX    TMP DP  RH WIND       PRES   REMARKS
COLO. SPRINGS  FAIR      58  32  37 VRB3      30.23S
A. F. ACADEMY  FAIR      57  30  36 E3        30.22S
SCHRIEVER AFB  FAIR      56  34  43 SE7       30.23S
CHEYENNE MTN   PTSUNNY   55  35  47 SE14G21   30.18F
ELLICOTT       FAIR     N/A N/A N/A S5        30.22S
FALCON         FAIR      56  28  33 NE3       30.26S
FORT CARSON    FAIR      59  35  40 SE7       30.21S
LIMON          FAIR      58  35  42 W5        30.21S
MONUMENT HILL  FAIR      52  28  40 CALM      30.26S
CANON CITY     NOT AVBL
WALSENBURG     FAIR      61  39  44 NE5       30.21F
TRINIDAD       FAIR      61  33  35 VRB3      30.20F
$$

COZ042>045-048>051-090-091-211800-
...NORTHEAST COLORADO...

CITY           SKY/WX    TMP DP  RH WIND       PRES   REMARKS
GREELEY ARPT   FAIR      59  39  47 N5        30.21F
AKRON          FAIR      60  38  43 NW7       30.20S
BURLINGTON     FAIR      64  39  39 W5        30.19F
WRAY           FAIR      64  39  39 CALM      30.19R
YUMA           FAIR      61  21  21 N5        30.19S
STERLING       FAIR      61  39  44 CALM      30.19S
HOLYOKE        NOT AVBL
FORT MORGAN    FAIR      63  34  34 N3        30.20F
$$

COZ086-089-092>099-211800-
...SOUTHEAST COLORADO...

CITY           SKY/WX    TMP DP  RH WIND       PRES   REMARKS
PUEBLO         FAIR      65  37  35 VRB3      30.18S
LA JUNTA       FAIR      64  40  41 NW5       30.17F
LAMAR          FAIR      68  42  38 SW13      30.14F
SPRINGFIELD      N/A     63  44  50 SW14G22   30.18S
$$



USA.gov is the U.S. government's official web portal to all federal, state and local government web resources and services.